Location: ??????
(41.3164°N, 22.6615°E)
Time: 04:04:34
(UTC+00:00)

CUBEBUG 2 - Pass Details

Date: 04 July 2022
Orbit: 584 x 692 km, 97.7° (Epoch: 17 August)

Event Time Altitude Azimuth Distance (km) Brightness Sun altitude
Rises 00:11:25 0° 36° (NE) 2,851 ? -21.9°
Reaches altitude 10° 00:14:58 10° 68° (ENE) 1,963 ? -21.6°
Maximum altitude 00:16:37 12° 91° (E) 1,840 ? -21.5°
Drops below altitude 10° 00:18:17 10° 114° (ESE) 1,980 ? -21.4°
Enters shadow 00:19:40 - 129° (SE) 2,263 ? -21.3°
